Preview of NWS' New Version of Forecast
This preview is not operational and should not be used for support decisions.

Regional Weather Roundup (RWR)

Issued by Gray - Portland, ME (GYX)

                            
000
ASUS41 KGYX 202005
RWRGYX
WEATHER ROUNDUP FOR MAINE AND NEW HAMPSHIRE
NATIONAL WEATHER SERVICE GRAY ME
400 PM EDT TUE AUG 20 2019

MEZ002-005-006-010-012-015-018-020-021-024-026-027-029-202100-
MAINE
  
CITY           SKY/WX    TMP DP  RH WIND       PRES   REMARKS
PORTLAND       FAIR      82  54  37 S9        30.04R                  
SANFORD        FAIR      83  60  45 VRB7      30.05S                  
BAR HARBOR     FAIR      81  58  45 NW6       30.01R                  
WISCASSET      FAIR      84  53  34 VRB6      30.04R                  
ROCKLAND       FAIR      77  60  55 S9        30.03R                  
FRYEBURG       FAIR      83  55  38 VRB7      30.04F                  
LEWISTONAUBURN FAIR      82  56  40 W5        30.04F                  
AUGUSTA        FAIR      81  57  43 SW7       30.05R                  
WATERVILLE     FAIR      80  55  42 VRB3      30.01S                  
BANGOR         FAIR      80  54  40 W8        30.02R                  
GREENVILLE     NOT AVBL                                               
MILLINOCKET    FAIR      80  52  37 VRB6      30.00S                  
HOULTON        FAIR      80  50  34 SW7       29.96S                  
PRESQUE ISLE   FAIR      80  53  39 SW12      29.97R                  
FRENCHVILLE    FAIR      77  51  40 W13G22    29.95R                  
CARIBOU        FAIR      79  51  37 SW9G18    29.94S                  
$$

NHZ002-005-008-009-011-012-014-202100-
NEW HAMPSHIRE
  
CITY           SKY/WX    TMP DP  RH WIND       PRES   REMARKS
ROCHESTER      FAIR      84  58  40 SE6       30.04S                  
NASHUA         FAIR      86  52  30 CALM      30.05S                  
MANCHESTER     FAIR      87  51  28 W5        30.03S                  
CONCORD        FAIR      84  53  34 VRB5      30.05S                  
LACONIA        FAIR      83  52  34 SW7       30.06S                  
PLYMOUTH       FAIR      82  54  37 NW8       30.05F                  
BERLIN         NOT AVBL                                               
WHITEFIELD     FAIR      80  50  34 W8        30.06F                  
JAFFREY        FAIR      83  48  29 VRB6      30.10S                  
KEENE          FAIR      83  55  38 VRB6      30.07S                  
LEBANON        FAIR      85  56  37 VRB5      30.04F                  
MT WASHINGTON  MOSUNNY   55  43  62 W14G25      N/A                   
$$

VTZ005-007-008-202100-
VERMONT
  
CITY           SKY/WX    TMP DP  RH WIND       PRES   REMARKS
ST JOHNSBURY     N/A     82  48  30 MISG      30.04S                  
MONTPELIER     FAIR      80  56  43 W6        30.10F                  
BURLINGTON     FAIR      83  53  35 S10       30.03F                  
$$

MAZ007-012-024-CTZ003-RIZ002-NYZ038-NYZ072-202100-
SOUTHERN NEW ENGLAND AND NY
  
CITY           SKY/WX    TMP DP  RH WIND       PRES   REMARKS
BOSTON         FAIR      80  61  52 E14       30.05S                  
WORCESTER      FAIR      82  56  40 W7        30.10S                  
NANTUCKET      FAIR      77  66  68 S7        30.07S                  
PROVIDENCE     PTSUNNY   85  62  46 S6G17     30.06S                  
HARTFORD       FAIR      88  54  31 W6        30.04F                  
ALBANY         FAIR      85  58  39 S5        30.06F                  
NEW YORK CITY  PTSUNNY   88  62  41 S12       30.04F                  
$$

ANZ081-ANZ082-ANZ150-NHZ014-MEZ023>029-202100-
COASTAL MARINE OBSERVATIONS
  
STATION/POSITION TIME  TEMP    WIND        PRES    WAVE
                       AIR SEA DIR/SP/G            HT/PER
                 (UTC) (F)     (DEG/KT/KT) (MB)    (FT/S)
MATINICUS ROCK   1950   74                 1016.8R
ISLE OF SHOALS   1900   75     150/ 11/ 11 1017.1S
JEFFREYS LEDGE   1938      73                N/A     2/ 7
CASHES LEDGE BUO 1950   68 66  250/  4/  4 1017.8R   2/ 8
GEORGES BANK BUO 1950   70 72  270/  8/ 10 1017.6S   3/ 5
$$

.............KEY..............
   WCI - WIND CHILL
   TC  - TEMPERATURE IN CELSIUS
   VSB - VISIBILITY IN MILES
   HX  - HEAT INDEX
   FAIR- INDICATES FEW OR NO CLOUDS BELOW 12,000 FT, WITH NO 
         SIGNIFICANT WEATHER AND/OR OBSTRUCTIONS TO VISIBILITY.